Погода в Новощербиновской

Россия / Краснодарский край     46°28′34″N   38°38′52″E
темп.,
°C
ветер,
м/с
пор.,
м/с
влажн.,
%
обл.,
%
осадки,
мм/ч
давл.,
гПа
погр.,
м
22 октября, пт
пт2200:00+9ююз513715 0.0 1020311
03:00+9ююз5137918 0.0 1019296
06:00+8ююз5139097 0.0 1018295
09:00+13ююз6147836 0.0 1018502
12:00+18юз911525 0.0 1018970
15:00+18зюз810535 0.0 1018936
18:00+15юз612704 0.0 1018378
21:00+13юз512805 0.0 1019325
23 октября, сб
сб2300:00+12юз411919 0.0 1018255
03:00+11ююз499671 0.0 1018183
06:00+11ююз389791 0.0 1018173
09:00+14юз4786100 0.0 1018319
12:00+18юз5665100 0.0 1018821
15:00+18юз6863100 0.0 1017818
18:00+15юз41081100 0.0 1017406
21:00+14юз51088100 0.0 1017359
24 октября, вс
вс2400:00+13сз368791 0.0 1018213
03:00+11с4789100 0.8 1018443
06:00+11ссз3679100 0.3 1019527
09:00+11с5648100 0.3 1021485
12:00+13с5537100 0.0 10211050
15:00+12ссз4538100 0.0 10211357
18:00+10ссз3446100 0.0 10211058
21:00+9з3551100 0.0 1021165
25 октября, пн
пн2500:00+8сз3554100 0.0 1022126
03:00+7сз49625 0.0 1022270
06:00+5ссз597288 0.0 1024392
09:00+6ссз6765100 0.0 10261119
12:00+7ссз5650100 0.0 10281536
15:00+8ссз464286 0.0 10291698
18:00+6ссз33467 0.0 103137
21:00+4св36575 0.0 1032137
26 октября, вт
вт2600:00+3св336151 0.0 103351
03:00+2св33655 0.0 103455
06:00+1всв33690 0.0 103442
09:00+4всв35550 0.0 1035317
12:00+8в45415 0.0 10341113
15:00+9в45370 0.0 10321243
18:00+6всв36470 0.0 103293
21:00+4всв37530 0.0 1032135